Temperature
22 19 18 19 20 21 20 20 19 20 20 20 19 18 17 17 17 16 16 16 16 16 17 17 18 18 18 19 19 19 20 20 20 20 20 20 20 20 20 20 20 20 19 19
19 18 20 20 20 19 19 18 18 18 19 20 17 16 16 15 15 14 14 14 14 15 16 17 17 17 17 17 18 18 18 19 19 20 20 20 20 20 20 20 20 20 19 19
18 19 20 20 18 18 18 18 18 18 18 18 17 15 14 15 14 13 13 13 13 14 14 15 16 16 17 17 17 17 17 18 18 19 19 20 20 19 19 19 19 19 19 19
17 18 18 17 17 17 17 18 18 18 17 15 17 14 12 13 13 13 12 12 12 13 14 14 15 15 16 16 16 17 17 17 18 18 19 19 20 19 19 19 19 19 19 18
17 17 16 16 17 17 17 17 17 17 16 15 15 13 12 12 11 12 12 12 12 12 13 13 14 14 15 15 15 16 16 16 17 17 18 18 19 19 19 19 19 18 18 18
18 18 18 17 17 17 16 16 16 14 13 13 13 12 11 11 11 11 11 11 12 12 12 13 13 14 14 14 15 15 15 15 16 16 17 17 18 18 18 18 18 18 17 17
17 17 17 17 15 15 14 13 13 13 12 13 13 12 11 12 12 11 11 11 11 11 12 12 13 13 13 13 14 14 14 14 15 15 16 16 16 17 17 17 17 17 16 16
16 15 16 16 15 14 14 13 12 13 13 13 13 11 11 12 12 11 11 11 11 11 12 12 12 12 13 13 13 13 13 13 14 14 14 15 15 15 16 15 15 15 15 15
15 15 17 17 15 14 14 12 13 12 13 12 12 12 12 12 12 11 11 10 11 11 11 12 12 12 13 13 13 13 13 13 13 13 13 14 14 14 14 14 14 14 14 14
15 15 16 16 15 14 13 13 11 11 11 11 12 11 10 10 10 10 10 10 10 11 11 11 12 12 12 12 12 12 12 12 13 13 13 13 13 13 13 13 14 14 14 14
15 14 14 14 13 12 12 12 11 10 10 10 10 10 11 10 10 10 10 10 11 11 11 12 12 12 12 12 12 12 12 12 12 12 12 13 13 13 13 13 13 13 13 13
14 12 12 14 15 14 13 12 11 10 10 10 10 10 11 10 10 10 10 11 12 12 12 12 12 12 12 12 12 12 12 12 12 13 13 13 13 13 13 13 13 13 14 14
14 12 12 13 13 13 13 12 11 10 9 10 10 10 12 11 11 12 12 13 13 13 13 13 13 13 13 12 12 12 12 12 12 13 13 13 13 13 13 13 13 14 14 14
15 12 13 14 13 13 13 13 12 10 9 10 10 11 11 11 11 12 13 13 14 14 14 14 13 13 13 13 12 12 12 12 12 12 13 13 13 13 13 13 13 13 14 14
14 13 14 14 15 14 13 13 13 12 11 10 11 11 12 12 12 13 14 14 14 14 14 14 14 14 13 13 12 12 12 12 12 12 12 12 12 12 13 13 13 13 13 13
14 14 15 15 15 14 14 14 13 13 13 12 12 12 13 13 13 14 14 14 14 14 14 14 14 14 13 13 13 13 12 12 12 12 12 12 12 12 12 12 12 12 12 12
13 13 13 13 15 15 13 14 14 14 14 13 12 13 13 13 14 14 14 14 14 14 14 15 15 14 14 14 13 13 12 12 12 12 12 12 12 12 12 12 12 12 12 12
14 13 12 13 14 14 14 15 15 14 14 14 14 14 14 14 14 14 14 14 15 15 15 15 15 15 14 14 14 13 13 12 12 12 12 11 11 11 12 12 12 11 11 11
14 14 13 12 13 14 15 15 15 14 14 15 15 15 15 15 14 14 14 14 15 15 15 15 15 15 15 14 14 14 13 13 12 12 12 11 11 11 12 12 11 11 11 11
14 12 13 13 15 14 15 15 16 15 14 15 15 15 15 14 12 13 15 15 15 15 15 15 15 15 15 15 14 14 14 13 13 12 12 12 11 11 11 11 11 11 10 10
14 14 13 13 14 15 16 16 16 13 13 16 16 16 15 14 13 15 15 15 15 15 15 15 15 15 15 15 15 14 14 13 13 12 12 12 11 11 11 11 11 10 10 10
13 13 13 12 14 15 16 15 14 14 16 16 16 16 16 15 15 15 15 15 15 15 15 15 15 15 15 15 15 15 14 14 13 13 12 12 11 11 11 11 10 10 10 10
13 13 12 13 14 16 17 17 18 17 17 16 16 16 16 15 15 15 15 15 15 15 15 15 15 15 15 15 15 15 14 14 13 13 12 12 11 11 11 10 10 10 10 10
15 15 13 13 14 16 17 18 18 17 17 17 16 16 16 15 15 15 15 15 15 15 15 15 15 15 15 15 15 14 14 14 14 13 12 12 11 11 11 10 10 10 10 10
15 15 14 14 15 15 16 17 17 17 17 17 16 16 16 15 15 15 15 15 15 15 15 15 15 15 15 14 14 14 14 14 13 13 12 12 11 11 11 10 10 10 10 10
15 14 14 14 16 15 17 17 17 17 17 16 16 16 15 15 15 15 15 15 15 15 15 15 15 15 14 14 15 15 14 14 13 13 12 12 11 11 11 11 10 10 10 9
Wind_Speed
7 9 8 8 8 5 4 4 4 3 6 5 6 8 10 14 18 18 17 16 14 12 12 12 14 14 14 13 12 11 11 10 7 3 2 4 7 8 8 8 10 11 11 11
8 9 6 6 10 9 7 6 5 5 6 4 8 13 13 18 20 18 18 18 16 15 16 15 14 15 14 13 13 11 11 10 9 5 4 4 5 5 7 6 6 8 8 8
10 5 8 10 13 9 6 3 3 5 7 5 6 7 12 11 18 20 20 18 17 17 15 15 15 14 13 14 13 12 11 10 10 10 5 3 2 2 2 4 5 4 4 5
9 7 9 10 8 8 4 5 6 5 3 4 3 3 8 12 17 21 20 18 17 15 14 13 13 14 14 13 12 11 11 11 10 10 6 3 3 5 6 5 4 3 3 3
5 5 9 8 7 7 6 8 6 3 2 2 5 5 5 9 15 20 18 17 16 15 14 13 12 12 12 12 11 10 10 10 10 10 8 5 3 3 3 3 6 6 5 5
6 3 5 5 5 6 7 5 6 6 5 4 6 4 5 8 13 18 18 17 15 14 13 12 11 10 10 11 10 10 9 9 10 9 8 6 4 2 1 1 4 4 3 4
5 7 5 5 8 9 9 7 6 8 6 2 4 6 3 7 12 14 17 16 15 12 12 12 12 12 11 10 10 9 9 8 9 9 9 8 7 6 5 3 3 3 2 1
3 6 7 7 6 5 6 6 5 2 1 2 5 4 1 7 12 13 13 12 13 13 12 11 11 10 9 9 8 8 8 8 9 9 9 9 8 7 6 7 6 5 3 3
5 3 4 7 8 5 5 4 1 5 1 3 3 3 4 14 19 18 18 16 15 14 13 13 12 10 9 8 7 7 7 8 8 8 8 9 9 8 8 7 7 5 4 4
6 6 4 4 8 10 5 2 6 5 3 3 3 4 9 17 19 18 16 16 14 14 13 13 12 11 9 9 7 6 7 7 7 8 7 7 7 7 7 6 6 5 5 4
5 6 5 6 7 8 8 6 5 5 5 4 3 3 6 12 14 14 14 13 13 12 12 11 10 10 10 10 9 7 7 7 7 7 7 7 7 6 6 6 5 4 3 2
4 6 4 2 0 3 6 5 4 5 4 3 2 3 7 9 11 11 11 11 10 9 8 8 7 8 9 10 10 9 8 7 7 6 6 6 6 6 6 5 5 4 3 2
5 6 4 2 6 7 6 6 6 6 5 3 2 4 5 7 8 8 8 9 9 8 8 7 7 7 8 9 9 10 9 8 8 7 7 8 8 7 7 6 6 5 5 5
5 6 5 5 3 1 3 5 5 6 5 3 1 4 7 7 7 8 9 8 8 8 8 7 7 7 6 7 7 8 9 9 9 8 9 9 9 8 8 8 8 8 8 9
6 5 4 5 5 5 4 4 5 5 5 5 4 4 6 5 5 7 7 8 8 8 9 8 7 6 6 7 7 8 8 9 9 9 10 10 9 9 9 9 9 10 10 10
5 6 4 3 5 5 3 3 3 3 3 3 3 4 5 4 3 5 6 7 7 8 9 9 8 7 6 6 6 7 7 7 8 9 9 9 9 9 9 8 8 8 8 8
4 6 4 3 4 2 2 6 6 4 4 5 4 5 4 2 1 3 3 5 6 7 8 8 7 6 4 3 3 4 5 6 7 7 7 8 8 9 8 8 8 8 8 8
5 5 4 3 4 4 6 6 8 6 5 6 6 5 5 6 3 1 1 2 6 8 8 8 7 6 3 1 1 2 4 5 6 6 6 7 7 7 7 8 7 7 6 6
4 5 4 4 3 3 2 5 7 6 6 7 4 2 6 6 2 4 2 1 3 5 5 5 5 4 3 1 1 2 3 3 4 5 5 5 5 6 7 7 6 5 4 5
5 5 5 4 3 6 7 8 7 5 4 6 6 5 7 6 2 4 5 3 4 6 6 6 6 5 5 3 2 1 0 1 1 2 3 4 4 5 6 6 5 4 4 5
1 2 2 3 4 7 5 7 9 5 8 7 8 8 7 6 6 6 5 3 4 5 6 6 7 7 6 5 2 2 2 3 3 1 2 4 4 5 5 6 6 6 7 7
8 5 5 5 4 7 6 10 9 9 4 8 8 8 7 6 5 5 3 2 4 5 6 6 6 8 7 5 1 2 4 4 2 2 3 4 4 5 6 7 7 7 7 7
8 9 6 8 8 6 9 9 8 7 8 8 8 7 7 5 3 3 2 1 3 4 5 5 5 7 8 6 2 2 5 4 1 3 3 4 5 5 6 6 6 6 6 5
3 4 4 4 6 5 7 5 7 8 8 9 8 7 7 6 4 4 2 1 3 4 4 4 6 7 8 7 5 4 5 3 3 5 5 5 5 5 6 5 5 5 5 5
7 7 4 5 5 3 6 7 9 8 9 8 8 7 7 7 5 4 3 1 2 3 3 3 5 6 7 6 6 6 6 4 5 5 5 5 4 5 5 4 4 4 3 2
6 8 8 9 9 9 10 11 10 11 11 10 10 8 7 7 6 5 3 2 1 1 2 4 5 5 5 5 6 7 6 3 5 5 5 4 4 3 3 3 2 4 3 4
Wind_Direction
44 54 54 48 51 69 61 70 34 16 9 25 63 57 41 38 40 34 27 25 23 25 17 19 20 18 17 14 11 7 360 352 352 347 282 233 221 215 213 209 202 206 206 201
56 41 40 58 42 43 43 52 16 337 347 22 79 60 48 46 39 31 24 18 13 12 12 11 13 13 11 6 2 360 353 345 342 329 280 238 223 218 212 216 207 201 199 192
87 19 25 43 32 19 11 55 353 322 346 12 102 59 26 21 25 22 18 12 9 8 6 3 3 3 2 359 355 352 346 344 339 331 309 277 233 245 220 219 218 208 189 183
69 15 31 36 22 2 315 315 320 313 3 322 51 105 19 355 8 8 4 360 355 354 354 356 355 352 350 346 345 345 344 344 343 338 330 296 229 219 215 202 190 161 139 130
77 42 40 23 348 344 293 294 294 279 171 26 16 103 7 353 0 351 348 345 341 344 343 342 344 341 338 337 339 341 342 347 348 348 342 325 280 244 221 179 162 157 151 147
70 61 59 352 325 330 322 350 32 49 74 53 352 88 30 5 344 336 337 335 333 335 332 331 334 335 332 333 338 344 347 349 353 358 2 7 9 13 75 141 163 161 156 159
38 12 8 7 360 355 15 45 37 25 29 43 42 74 55 348 343 334 330 327 327 329 327 331 334 334 332 337 342 347 351 355 358 8 19 24 34 45 59 75 104 114 120 131
90 13 16 22 13 342 1 74 107 120 299 348 41 59 263 351 343 340 338 335 337 336 332 336 336 334 334 337 344 352 0 5 8 18 25 29 37 47 54 61 73 78 84 85
125 95 81 52 25 35 19 13 148 145 56 71 48 21 313 345 348 349 351 352 351 345 346 349 348 348 345 349 355 359 9 14 16 21 30 36 39 47 53 57 63 66 69 76
122 108 38 27 17 16 41 18 50 66 75 61 31 20 343 332 335 340 346 349 350 0 1 358 357 359 357 359 3 7 14 22 24 28 34 40 38 41 42 48 53 55 50 51
87 104 17 25 28 8 9 22 52 75 86 101 48 350 320 308 316 324 333 339 344 352 354 355 1 3 3 5 7 9 13 22 23 24 27 30 29 30 35 37 33 33 32 31
56 101 74 52 265 50 39 24 71 99 65 70 99 305 288 297 304 309 318 325 329 333 336 340 347 356 4 10 13 16 21 23 17 16 20 21 20 22 24 21 15 12 6 348
75 102 97 11 345 4 22 14 69 97 95 68 68 307 295 300 309 314 319 326 329 331 335 341 350 359 3 6 14 19 22 21 19 18 19 18 18 23 24 21 19 22 27 28
96 75 121 142 195 191 52 37 59 88 100 107 171 269 302 311 320 327 331 332 336 339 346 356 357 353 355 1 11 19 21 21 25 26 29 27 23 25 28 29 30 33 43 52
87 85 102 136 150 130 120 96 78 91 143 146 211 243 270 283 303 320 332 343 353 356 359 3 5 0 359 4 10 18 20 19 24 31 32 27 26 30 35 37 40 45 52 58
91 124 131 136 155 140 128 153 128 112 146 169 205 249 242 249 299 333 343 352 359 359 358 358 8 17 14 10 11 20 22 20 28 32 29 26 30 32 33 37 42 49 51 52
96 129 133 184 182 142 232 202 185 179 198 187 207 233 208 203 291 319 339 356 358 356 352 351 355 11 21 21 28 31 25 29 35 32 27 27 32 33 29 35 39 40 41 45
118 123 136 138 137 246 255 196 170 177 211 217 231 242 191 186 204 278 268 9 352 347 345 343 345 356 12 45 76 57 42 39 36 31 27 26 33 33 28 32 32 30 34 43
115 128 116 128 182 274 278 191 179 182 228 227 221 205 161 163 70 345 302 285 318 324 326 326 332 338 356 359 183 105 55 40 36 23 21 26 40 40 32 28 22 19 33 38
65 89 110 133 179 240 243 203 166 133 238 228 177 144 151 145 83 276 273 275 304 315 322 330 336 343 345 318 247 167 212 356 10 2 29 44 57 54 40 25 20 22 38 42
22 51 138 181 228 259 247 149 126 161 235 193 162 151 145 169 201 233 254 279 306 305 312 332 342 337 324 314 262 239 262 264 249 208 73 60 63 62 48 38 36 45 55 54
176 175 201 176 213 255 183 142 175 211 173 149 151 156 160 187 211 217 224 304 335 328 321 334 341 331 329 335 323 306 300 285 252 158 93 65 53 58 62 55 46 46 55 56
186 188 188 190 214 237 183 187 197 158 152 158 158 164 164 173 187 185 186 317 342 340 335 340 344 342 345 353 16 354 319 320 133 130 110 90 72 61 61 64 59 49 46 50
244 155 148 223 256 221 200 188 165 164 163 166 164 165 164 164 161 153 167 310 340 340 342 349 1 0 352 353 11 356 339 3 101 123 121 113 99 79 63 56 55 59 47 44
221 174 178 229 247 197 229 202 176 164 155 156 159 164 164 159 153 160 182 256 321 332 333 355 4 354 347 355 3 358 3 41 86 112 126 127 118 109 87 64 46 54 41 51
195 176 179 215 203 181 210 204 179 161 169 170 166 169 169 163 165 162 190 238 298 330 338 357 358 354 348 357 357 354 0 47 105 114 126 136 138 131 126 113 65 25 26 32
Height
1534 1541 1549 1547 1544 1544 1544 1547 1550 1546 1542 1541 1545 1548 1548 1549 1548 1549 1547 1545 1543 1540 1538 1535 1532 1529 1527 1525 1523 1521 1521 1520 1520 1520 1520 1521 1522 1523 1524 1525 1526 1527 1529 1531
1544 1552 1548 1544 1543 1544 1547 1551 1554 1549 1544 1544 1551 1556 1555 1556 1557 1556 1553 1550 1547 1543 1538 1535 1532 1529 1527 1524 1522 1520 1518 1517 1516 1516 1516 1517 1518 1519 1520 1521 1522 1523 1525 1527
1552 1555 1548 1546 1548 1550 1550 1553 1553 1552 1548 1545 1550 1562 1563 1561 1560 1558 1555 1553 1549 1545 1541 1537 1533 1530 1526 1523 1520 1518 1516 1514 1512 1512 1512 1512 1513 1514 1515 1516 1516 1518 1521 1522
1554 1554 1551 1552 1553 1553 1556 1548 1547 1548 1555 1561 1556 1573 1573 1567 1562 1560 1558 1555 1551 1546 1543 1539 1534 1530 1527 1523 1520 1517 1514 1511 1509 1507 1507 1507 1508 1509 1509 1510 1512 1513 1515 1516
1559 1557 1557 1559 1557 1554 1552 1546 1546 1547 1553 1562 1562 1573 1581 1572 1570 1566 1562 1558 1553 1548 1544 1539 1535 1531 1527 1524 1520 1516 1513 1510 1507 1504 1503 1502 1502 1503 1504 1506 1507 1508 1508 1510
1558 1558 1558 1559 1556 1553 1549 1547 1548 1554 1562 1576 1573 1578 1585 1582 1578 1570 1563 1558 1553 1548 1543 1539 1535 1531 1527 1523 1519 1515 1511 1508 1505 1502 1500 1499 1498 1498 1499 1500 1502 1503 1504 1506
1565 1564 1561 1560 1559 1556 1555 1563 1573 1576 1582 1584 1577 1581 1589 1582 1578 1573 1565 1559 1553 1548 1543 1538 1533 1529 1525 1522 1518 1514 1510 1507 1504 1501 1499 1497 1496 1496 1496 1497 1499 1500 1501 1502
1574 1578 1568 1565 1565 1564 1563 1568 1583 1588 1588 1585 1581 1586 1587 1580 1576 1571 1565 1559 1553 1547 1542 1537 1532 1529 1525 1521 1517 1514 1510 1507 1504 1501 1499 1497 1496 1495 1496 1496 1497 1498 1499 1499
1575 1578 1569 1567 1566 1565 1568 1572 1571 1581 1581 1588 1588 1588 1582 1578 1574 1569 1564 1557 1552 1546 1541 1536 1532 1528 1525 1521 1517 1514 1511 1508 1505 1503 1500 1499 1497 1497 1497 1497 1497 1497 1498 1498
1566 1578 1573 1570 1569 1568 1570 1571 1578 1584 1591 1598 1594 1593 1594 1584 1578 1572 1566 1560 1554 1548 1543 1538 1533 1530 1526 1522 1519 1516 1513 1510 1508 1506 1503 1502 1501 1500 1499 1499 1499 1499 1499 1499
1563 1577 1581 1578 1580 1580 1576 1577 1581 1589 1593 1601 1602 1602 1592 1588 1581 1576 1569 1563 1557 1552 1546 1541 1537 1534 1530 1526 1522 1519 1516 1513 1511 1509 1507 1506 1505 1504 1503 1503 1502 1502 1501 1501
1566 1579 1588 1583 1579 1577 1578 1579 1583 1593 1600 1600 1602 1605 1588 1585 1581 1576 1571 1565 1560 1555 1551 1546 1542 1538 1534 1530 1526 1522 1519 1516 1515 1513 1511 1510 1509 1508 1507 1506 1506 1505 1505 1504
1568 1580 1594 1592 1590 1584 1583 1582 1583 1590 1598 1601 1602 1604 1586 1584 1580 1576 1571 1567 1562 1558 1554 1550 1547 1542 1539 1535 1531 1526 1523 1520 1518 1517 1515 1513 1512 1511 1510 1509 1508 1508 1507 1506
1567 1580 1587 1593 1593 1588 1588 1586 1585 1591 1601 1602 1600 1597 1588 1584 1580 1576 1572 1569 1565 1561 1557 1553 1550 1547 1543 1540 1536 1532 1528 1525 1523 1520 1518 1517 1515 1514 1513 1512 1511 1510 1509 1508
1569 1583 1583 1584 1583 1585 1587 1587 1587 1590 1594 1599 1595 1592 1587 1583 1580 1577 1574 1570 1567 1563 1560 1556 1553 1550 1547 1544 1540 1537 1533 1530 1527 1525 1522 1520 1519 1517 1516 1514 1513 1511 1510 1509
1572 1582 1584 1586 1584 1585 1587 1587 1586 1587 1588 1589 1589 1588 1582 1581 1579 1577 1575 1572 1569 1566 1562 1559 1556 1554 1551 1548 1544 1541 1537 1535 1532 1529 1527 1525 1523 1521 1519 1517 1515 1514 1512 1511
1575 1581 1589 1593 1586 1588 1593 1586 1585 1585 1583 1585 1587 1584 1580 1580 1579 1578 1576 1573 1571 1568 1565 1562 1559 1557 1554 1551 1548 1545 1541 1539 1536 1533 1531 1528 1526 1524 1522 1520 1518 1517 1515 1514
1574 1581 1589 1592 1593 1597 1585 1576 1578 1580 1580 1579 1579 1577 1578 1579 1578 1577 1576 1574 1572 1570 1568 1565 1562 1560 1557 1554 1551 1548 1545 1542 1539 1536 1534 1532 1529 1527 1525 1523 1521 1519 1518 1516
1571 1577 1587 1594 1595 1589 1582 1576 1576 1580 1580 1576 1576 1575 1576 1578 1578 1577 1576 1575 1574 1572 1570 1567 1565 1562 1560 1557 1554 1551 1548 1545 1542 1540 1537 1535 1532 1529 1527 1524 1523 1522 1521 1519
1572 1576 1585 1590 1590 1590 1576 1568 1571 1577 1580 1573 1574 1574 1575 1577 1580 1579 1576 1575 1574 1572 1571 1568 1566 1564 1561 1558 1555 1553 1550 1548 1545 1542 1540 1537 1535 1532 1529 1526 1525 1524 1523 1521
1578 1580 1584 1587 1586 1577 1565 1565 1571 1585 1577 1569 1571 1572 1574 1575 1576 1576 1575 1575 1574 1572 1571 1569 1567 1564 1562 1559 1557 1554 1552 1549 1547 1545 1543 1540 1537 1535 1532 1529 1528 1526 1525 1524
1576 1581 1582 1585 1584 1578 1561 1564 1569 1568 1564 1566 1569 1571 1573 1574 1574 1575 1575 1574 1573 1572 1571 1569 1567 1564 1562 1559 1557 1555 1553 1550 1548 1547 1545 1542 1540 1537 1535 1532 1530 1529 1527 1526
1567 1566 1568 1570 1568 1557 1556 1557 1559 1561 1563 1565 1567 1570 1572 1573 1573 1574 1574 1573 1573 1572 1570 1569 1567 1564 1562 1559 1557 1555 1553 1551 1549 1548 1546 1544 1542 1539 1537 1535 1533 1531 1529 1527
1557 1556 1559 1560 1556 1552 1554 1555 1557 1559 1561 1564 1566 1569 1570 1572 1572 1573 1573 1573 1572 1571 1570 1568 1566 1564 1562 1560 1558 1555 1553 1551 1550 1548 1547 1545 1543 1541 1539 1537 1536 1534 1531 1529
1551 1552 1555 1555 1551 1552 1552 1553 1555 1558 1560 1563 1565 1567 1569 1570 1571 1572 1572 1572 1571 1570 1569 1568 1566 1564 1562 1560 1558 1556 1553 1552 1550 1549 1548 1547 1545 1543 1542 1540 1538 1536 1534 1531
1544 1546 1550 1549 1543 1545 1546 1549 1553 1555 1558 1560 1563 1565 1567 1569 1570 1571 1571 1571 1570 1569 1568 1567 1565 1564 1562 1560 1558 1556 1553 1552 1551 1550 1549 1548 1547 1545 1544 1542 1540 1538 1536 1534